Weather History for Du Bois, PA

Change the Weather History Date:

Thursday, February 28, 2013

  Actual Average Record
Temperature  
Mean Temperature 30 °F 30 °F  
Max Temperature 31 °F 38 °F 55 °F (1983)
Min Temperature 29 °F 21 °F -6 °F (2014)
Degree Days  
Heating Degree Days 35 35  
Month to date heating degree days 1142 1079  
Since 1 July heating degree days 4723 5023  
Cooling Degree Days 0 0  
Month to date cooling degree days 0 0  
Year to date cooling degree days 0 0  
Moisture  
Dew Point 28 °F    
Average Humidity 93    
Maximum Humidity 100    
Minimum Humidity 85    
Precipitation  
Precipitation 0.02 in 0.10 in 1.20 in (1999)
Month to date precipitation 1.31 2.37  
Sea Level Pressure  
Sea Level Pressure 29.60 in    
Wind  
Wind Speed 11 mph (WSW)    
Max Wind Speed 16 mph    
Max Gust Speed 24 mph    
Visibility 4 miles    
Events Fog , Snow    
T = Trace of Precipitation, MM = Missing Value Source: NWS Daily Summary

Daily Weather History Graph

Daily Weather History Graph

Search for Another Location

Airport:

Trip Planner

Search our weather history database for the weather conditions in past years. The results will help you decide how hot, cold, wet, or windy it might be!

Date:

Astronomy

Feb. 28, 2013 Rise Set
Actual Time 6:51 AM EST 6:05 PM EST
Civil Twilight 6:23 AM EST 6:33 PM EST
Nautical Twilight 5:51 AM EST 7:05 PM EST
Astronomical Twilight 5:19 AM EST 7:37 PM EST
Moon 9:33 PM EST (2/28) 7:57 AM EST (2/28)
Length of Visible Light 12h 09m
Length of Day
11h 14m
Waning Gibbous, 91% of the Moon is Illuminated
Feb 28
Waning Gibbous
Mar 4
Last Quarter
Mar 11
New
Mar 19
First Quarter
Mar 27
Full

Hourly Weather History & Observations

Time (EST) Temp. Windchill Dew Point Humidity Pressure Visibility Wind Dir Wind Speed Gust Speed Precip Events Conditions
1:18 AM 30.2 °F 21.3 °F 28.4 °F 93% 29.56 in 10.0 mi WSW 10.4 mph - N/A   Overcast
1:56 AM 30.0 °F 20.5 °F 27.0 °F 88% 29.61 in 10.0 mi WSW 11.5 mph - N/A   Overcast
2:29 AM 30.2 °F 20.2 °F 28.4 °F 93% 29.56 in 10.0 mi WSW 12.7 mph - N/A   Overcast
2:56 AM 30.0 °F 21.1 °F 27.0 °F 88% 29.60 in 10.0 mi WSW 10.4 mph - N/A   Overcast
3:56 AM 30.0 °F 22.4 °F 27.0 °F 88% 29.59 in 10.0 mi WSW 8.1 mph - N/A   Overcast
4:56 AM 30.0 °F 21.7 °F 26.1 °F 85% 29.59 in 10.0 mi SW 9.2 mph - N/A   Overcast
5:31 AM 28.4 °F 20.4 °F 26.6 °F 93% 29.55 in 10.0 mi SW 8.1 mph - N/A   Overcast
5:56 AM 30.0 °F 21.1 °F 27.0 °F 88% 29.59 in 10.0 mi SW 10.4 mph - N/A   Overcast
6:56 AM 28.9 °F 19.8 °F 27.0 °F 92% 29.59 in 4.0 mi SW 10.4 mph - 0.00 in Snow Light Snow
7:56 AM 30.0 °F 21.7 °F 27.0 °F 88% 29.59 in 2.0 mi WSW 9.2 mph - 0.00 in Snow Light Snow
8:00 AM 30.2 °F 22.6 °F 28.4 °F 93% 29.55 in 1.5 mi WSW 8.1 mph - 0.01 in Snow Light Snow
8:21 AM 28.4 °F 21.2 °F 28.4 °F 100% 29.55 in 0.5 mi SW 6.9 mph - 0.01 in Fog , Snow Light Snow
8:43 AM 28.4 °F 17.0 °F 26.6 °F 93% 29.55 in 1.0 mi WSW 15.0 mph 20.7 mph 0.01 in Snow Light Snow
8:56 AM 30.0 °F 20.5 °F 27.0 °F 88% 29.60 in 3.0 mi WSW 11.5 mph - 0.01 in   Overcast
9:44 AM 30.2 °F 20.8 °F 26.6 °F 86% 29.56 in 1.8 mi SW 11.5 mph - 0.00 in Snow Light Snow
9:56 AM 30.0 °F 20.0 °F 27.0 °F 88% 29.60 in 1.2 mi WSW 12.7 mph - 0.00 in Snow Light Snow
10:16 AM 30.2 °F 20.8 °F 26.6 °F 86% 29.56 in 0.8 mi WSW 11.5 mph - 0.00 in Snow Light Snow
10:26 AM 30.2 °F 20.8 °F 28.4 °F 93% 29.56 in 1.0 mi WSW 11.5 mph - 0.00 in Snow Light Snow
10:41 AM 30.2 °F 20.8 °F 26.6 °F 86% 29.56 in 1.2 mi SW 11.5 mph - 0.00 in Snow Light Snow
10:47 AM 30.2 °F 20.8 °F 26.6 °F 86% 29.56 in 2.0 mi WSW 11.5 mph - 0.00 in Snow Light Snow
10:56 AM 30.0 °F 20.0 °F 27.0 °F 88% 29.61 in 2.5 mi WSW 12.7 mph 20.7 mph 0.00 in   Overcast
11:09 AM 30.2 °F 20.2 °F 26.6 °F 86% 29.56 in 4.0 mi WSW 12.7 mph - 0.00 in   Overcast
11:21 AM 30.2 °F 21.9 °F 26.6 °F 86% 29.56 in 2.5 mi SW 9.2 mph - 0.00 in   Overcast
11:30 AM 30.2 °F 20.8 °F 26.6 °F 86% 29.56 in 1.2 mi WSW 11.5 mph 19.6 mph 0.01 in Snow Light Snow
11:45 AM 30.2 °F 20.2 °F 26.6 °F 86% 29.56 in 0.2 mi WSW 12.7 mph - 0.01 in Fog , Snow Light Snow
11:56 AM 30.0 °F 20.0 °F 28.0 °F 92% 29.61 in 0.2 mi WSW 12.7 mph - 0.01 in Fog , Snow Light Snow
11:58 AM 30.2 °F 20.2 °F 28.4 °F 93% 29.57 in 0.5 mi WSW 12.7 mph - 0.00 in Fog , Snow Light Snow
12:23 PM 30.2 °F 19.8 °F 28.4 °F 93% 29.56 in 1.0 mi WSW 13.8 mph - 0.00 in Snow Light Snow
12:51 PM 30.2 °F 20.8 °F 28.4 °F 93% 29.56 in 1.2 mi SW 11.5 mph - 0.00 in Snow Light Snow
12:56 PM 30.9 °F 21.2 °F 28.0 °F 89% 29.61 in 1.0 mi SW 12.7 mph - 0.00 in Snow Light Snow
1:46 PM 30.2 °F 21.9 °F 26.6 °F 86% 29.55 in 2.5 mi WSW 9.2 mph - 0.00 in   Overcast
1:54 PM 30.2 °F 19.8 °F 26.6 °F 86% 29.55 in 3.0 mi WSW 13.8 mph - 0.00 in   Overcast
1:56 PM 30.9 °F 20.2 °F 27.0 °F 85% 29.60 in 3.0 mi WSW 15.0 mph - 0.00 in   Overcast
2:33 PM 30.2 °F 20.2 °F 26.6 °F 86% 29.55 in 1.8 mi WSW 12.7 mph - N/A   Overcast
2:56 PM 30.9 °F 22.2 °F 28.0 °F 89% 29.61 in 1.8 mi WSW 10.4 mph - 0.00 in Snow Light Snow
3:06 PM 30.2 °F 20.8 °F 28.4 °F 93% 29.56 in 1.5 mi West 11.5 mph - N/A   Overcast
3:12 PM 30.2 °F 20.2 °F 28.4 °F 93% 29.56 in 2.0 mi West 12.7 mph 18.4 mph N/A   Overcast
3:14 PM 30.2 °F 20.8 °F 28.4 °F 93% 29.56 in 2.5 mi West 11.5 mph - N/A   Overcast
3:25 PM 30.2 °F 20.2 °F 28.4 °F 93% 29.57 in 4.0 mi WSW 12.7 mph - N/A   Overcast
3:42 PM 30.2 °F 21.3 °F 28.4 °F 93% 29.57 in 2.5 mi West 10.4 mph - N/A   Overcast
3:45 PM 30.2 °F 20.2 °F 28.4 °F 93% 29.57 in 2.5 mi WSW 12.7 mph - 0.00 in Snow Light Snow
3:53 PM 30.2 °F 20.8 °F 28.4 °F 93% 29.57 in 3.0 mi West 11.5 mph - 0.00 in Snow Light Snow
3:56 PM 30.9 °F 21.7 °F 28.0 °F 89% 29.62 in 2.5 mi WSW 11.5 mph - 0.00 in Snow Light Snow
4:13 PM 30.2 °F 21.3 °F 28.4 °F 93% 29.57 in 2.0 mi WSW 10.4 mph - 0.00 in Snow Light Snow
4:20 PM 30.2 °F 20.8 °F 28.4 °F 93% 29.58 in 1.8 mi West 11.5 mph - 0.00 in Snow Light Snow
4:29 PM 30.2 °F 21.9 °F 28.4 °F 93% 29.58 in 2.0 mi WSW 9.2 mph - 0.00 in Snow Light Snow
4:36 PM 30.2 °F 22.6 °F 28.4 °F 93% 29.58 in 3.0 mi West 8.1 mph - 0.00 in Snow Light Snow
4:47 PM 30.2 °F 21.9 °F 28.4 °F 93% 29.58 in 4.0 mi WSW 9.2 mph - 0.00 in   Overcast
4:56 PM 30.9 °F 22.2 °F 28.9 °F 92% 29.63 in 7.0 mi West 10.4 mph - 0.00 in   Overcast
5:52 PM 30.2 °F 22.6 °F 28.4 °F 93% 29.60 in 2.5 mi West 8.1 mph - 0.00 in   Overcast
6:14 PM 30.2 °F 22.6 °F 28.4 °F 93% 29.61 in 9.0 mi West 8.1 mph - N/A   Overcast
6:30 PM 30.2 °F 21.9 °F 28.4 °F 93% 29.62 in 7.0 mi West 9.2 mph - N/A   Overcast
6:56 PM 30.9 °F 21.7 °F 28.9 °F 92% 29.68 in 6.0 mi WNW 11.5 mph 18.4 mph N/A   Overcast
7:56 PM 30.9 °F 22.2 °F 28.9 °F 92% 29.70 in 7.0 mi WNW 10.4 mph - N/A   Overcast
8:31 PM 30.2 °F 21.9 °F 28.4 °F 93% 29.66 in 10.0 mi WNW 9.2 mph - N/A   Overcast
8:56 PM 30.9 °F 24.3 °F 28.0 °F 89% 29.72 in 10.0 mi WNW 6.9 mph - N/A   Overcast
9:14 PM 30.2 °F 21.9 °F 28.4 °F 93% 29.68 in 10.0 mi WNW 9.2 mph - N/A   Overcast
9:36 PM 30.2 °F 21.3 °F 28.4 °F 93% 29.68 in 10.0 mi WNW 10.4 mph - N/A   Overcast
9:49 PM 30.2 °F 21.9 °F 28.4 °F 93% 29.68 in 9.0 mi WNW 9.2 mph - N/A   Overcast
9:56 PM 30.0 °F 21.7 °F 28.0 °F 92% 29.74 in 7.0 mi WNW 9.2 mph - N/A   Overcast
10:08 PM 30.2 °F 21.9 °F 28.4 °F 93% 29.69 in 5.0 mi WNW 9.2 mph - N/A   Overcast
10:56 PM 30.0 °F 22.4 °F 28.0 °F 92% 29.74 in 10.0 mi NW 8.1 mph - N/A   Overcast
11:56 PM 30.0 °F 24.1 °F 28.0 °F 92% 29.74 in 10.0 mi WNW 5.8 mph - N/A   Overcast